Location: Buckeye Ditch
(40.9104°N, 122.9517°W)
Time: 15:09:38
(UTC+00:00)

A-11 Canister half - Pass Details

Date: 26 May 2025
Orbit: 1515 x 1684 km, 47.2° (Epoch: 14 June)

Event Time Altitude Azimuth Distance (km) Brightness Sun altitude
Rises 05:30:31 0° 226° (SW) 4,836 11.6 -17.8°
Reaches altitude 10° 05:33:42 10° 223° (SW) 3,830 11.0 -18.2°
Maximum altitude 05:43:16 66° 144° (SE) 1,687 8.9 -19.3°
Drops below altitude 10° 05:52:32 10° 65° (ENE) 3,715 10.9 -20.3°
Sets 05:55:34 0° 62° (ENE) 4,685 11.5 -20.6°
